Location: Musselshell
(46.5176°N, 108.0911°W)
Time: 21:03:26
(UTC+00:00)

AO-91 - Pass Details

Date: 30 June 2022
Orbit: 450 x 797 km, 97.7° (Epoch: 13 August)

Event Time Altitude Azimuth Distance (km) Brightness Sun altitude
Rises 07:02:13 0° 359° (N) 2,557 ? -20.2°
Reaches altitude 10° 07:04:44 10° 341° (NNW) 1,635 ? -20.3°
Maximum altitude 07:07:14 19° 295° (WNW) 1,161 ? -20.3°
Enters shadow 07:08:38 15° 264° (W) 1,311 ? -20.3°
